Skip Page Navigation
NASA JPL Caltech
NASA Logo - Jet Propulsion Laboratory + View the NASA Portal
+ Center for Near-Earth Object Studies
JPL Home Earth Solar System Stars & Galaxies Technology
JPL Solar System Dynamics
BODIES ORBITS EPHEMERIDES TOOLS PHYSICAL DATA DISCOVERY FAQ SITE MAP
IMPORTANT: The SSD Announcement email list is now available. Major changes are coming in the near future, including possible hostname and/or URL changes. To be notified of such changes, subscribe to this email list.

Please visit this page for more details.


JPL Small-Body Database Browser
Search: [ help ]  
59350 (1999 CT142)
Classification: Main-belt Asteroid          SPK-ID: 2059350
Ephemeris | Orbit Diagram | Orbital Elements | Mission Design | Physical Parameters | Discovery Circumstances | Close-Approach Data ]

[ show orbit diagram ]
Orbital Elements at Epoch 2458600.5 (2019-Apr-27.0) TDB
Reference: JPL 20 (heliocentric ecliptic J2000)
 Element Value Uncertainty (1-sigma)   Units 
e .1539171097637581 4.6287e-08  
a 2.419738304906731 1.0564e-08 au
q 2.047299178630832 1.1243e-07 au
i 3.252706749914114 6.1605e-06 deg
node 127.2156537488113 8.4666e-05 deg
peri 79.77456620769654 8.6689e-05 deg
M 82.09903850426952 1.8367e-05 deg
tp 2458286.964589927495
(2018-Jun-17.46458993)
6.9757e-05 TDB
period 1374.83641322099
3.76
9.0033e-06
2.465e-08
d
yr
n .2618493346103526 1.7148e-09 deg/d
Q 2.79217743118263 1.219e-08 au
  Orbit Determination Parameters
   # obs. used (total)      411  
   data-arc span      7559 days (20.70 yr)  
   first obs. used      1999-01-14  
   last obs. used      2019-09-25  
   planetary ephem.      DE431  
   SB-pert. ephem.      SB431-N16  
   condition code      0  
   norm. resid. RMS      .55003  
   source      ORB  
   producer      Otto Matic  
   solution date      2019-Nov-07 07:22:16  

Additional Information
 Earth MOID = 1.04614 au 
 Jupiter MOID = 2.17166 au 
 T_jup = 3.496 
[ show covariance matrix ]

Ephemeris | Orbit Diagram | Orbital Elements | Mission Design | Physical Parameters | Discovery Circumstances | Close-Approach Data ]

Physical Parameter Table
Parameter Symbol Value Units Sigma Reference Notes
absolute magnitude H 16.4   n/a MPO436196  

59350 (1999 CT142)          Discovered 1999-Feb-10 by Spacewatch at Kitt Peak
Reference: 20030614/Numbers.arcLast Updated: 2004-04-19

[ show close-approach data ]
Ephemeris | Orbit Diagram | Orbital Elements | Mission Design | Physical Parameters | Discovery Circumstances | Close-Approach Data ]
ABOUT SSD CREDITS/AWARDS PRIVACY/COPYRIGHT GLOSSARY LINKS
FirstGov 2020-Jan-22 14:07 UT
(server date/time)  
NASA Home Page
Site Manager:   Ryan S. Park
Webmaster  Alan B. Chamberlin